Weather in Ust'-Kachka

Russia / Perm Krai     58°00′14″N   55°40′25″E
temp.,
°C
wind,
m/s
gust,
m/s
humid.,
%
clouds,
%
prec.,
mm/h
press.,
hPa
HPBL,
m
28 february, sun
sun2823:00−16e51092100 0.4 1009589
02:00−17e4993100 0.1 1008511
05:00−17ene4993100 0.3 1009513
08:00−18ene3895100 0.2 1009488
11:00−16ene4890100 0.3 1009568
14:00−14ene4789100 0.1 1009638
17:00−13ne4690100 0.4 1010633
20:00−16ne389395 0.1 1012391
1 march, mon
mon123:00−17ne379587 0.2 1014235
02:00−18nne259776 0.1 1015131
05:00−19nne269778 0.1 1017157
08:00−20ne239870 0.0 101866
11:00−17ene239161 0.0 1018276
14:00−12ene118380 0.0 1017430
17:00−11w118490 0.0 1017432
20:00−17ssw229458 0.0 101620
2 march, tue
tue223:00−18ssw249631 0.0 101559
02:00−17ssw3109636 0.0 1012301
05:00−16ssw4129168 0.0 1009425
08:00−15ssw51293100 0.2 1006481
11:00−15ssw51193100 0.8 1004520
14:00−12ssw51092100 0.8 1001595
17:00−11s4993100 1.4 1000582
20:00−11s2995100 0.6 999488
3 march, wed
wed323:00−10s2796100 1.2 998346
02:00−11sse1196100 0.2 99723
05:00−13sse1197100 0.3 99720
08:00−14sw119894 0.0 99720
11:00−8sw249397 0.2 997237
14:00−4wsw2593100 0.5 997418
17:00−4wnw4785100 0.8 998885
20:00−6w399597 0.2 999505
4 march, thu
thu423:00−10w379394 0.3 1001182
02:00−14wsw239614 0.0 100161
05:00−15sw239638 0.0 100236
08:00−13sw269697 0.2 1001160
11:00−10sw369398 0.4 1001331
14:00−6sw4788100 0.1 999661
17:00−5ssw4987100 0.1 998799
20:00−7s41292100 0.2 994710